Time,TemperatureF,DewpointF,PressureIn,WindDirection,WindDirectionDegrees,WindSpeedMPH,WindSpeedGustMPH,Humidity,HourlyPrecipIn,Conditions,Clouds,dailyrainin,SolarRadiationWatts/m^2,SoftwareType,DateUTC
2014-01-27 00:02:00,29.0,7.0,-100.00,SE,126,5.0,7.0,38,0.00,,,0.00,0.000000,,2014-01-27 07:02:00,
2014-01-27 00:11:00,29.0,7.0,-100.00,SE,126,5.0,7.0,38,0.00,,,0.00,0.000000,,2014-01-27 07:11:00,
2014-01-27 00:42:00,29.0,7.0,-100.00,SE,128,3.0,7.0,39,0.00,,,0.00,0.000000,,2014-01-27 07:42:00,
2014-01-27 00:52:00,29.0,7.0,-100.00,SE,128,3.0,7.0,39,0.00,,,0.00,0.000000,,2014-01-27 07:52:00,
2014-01-27 01:01:00,29.0,7.0,-100.00,SE,128,3.0,7.0,39,0.00,,,0.00,0.000000,,2014-01-27 08:01:00,
2014-01-27 01:11:00,29.0,7.0,-100.00,SE,128,3.0,7.0,39,0.00,,,0.00,0.000000,,2014-01-27 08:11:00,
2014-01-27 01:42:00,28.0,8.0,-100.00,SE,132,3.0,5.0,43,0.00,,,0.00,0.000000,,2014-01-27 08:42:00,
2014-01-27 02:11:00,28.0,8.0,-100.00,SE,132,3.0,5.0,43,0.00,,,0.00,0.000000,,2014-01-27 09:11:00,
2014-01-27 02:43:00,29.0,9.0,-100.00,ESE,121,4.0,5.0,42,0.00,,,0.00,0.000000,,2014-01-27 09:43:00,
2014-01-27 03:12:00,28.0,10.0,-100.00,NW,321,2.0,4.0,46,0.00,,,0.00,0.000000,,2014-01-27 10:12:00,
2014-01-27 03:43:00,28.0,10.0,-100.00,NW,321,2.0,4.0,46,0.00,,,0.00,0.000000,,2014-01-27 10:43:00,
2014-01-27 04:12:00,26.0,8.0,-100.00,East,84,3.0,4.0,46,-99.99,,,0.00,0.000000,,2014-01-27 11:12:00,
2014-01-27 04:43:00,26.0,8.0,-100.00,East,84,3.0,4.0,46,-99.99,,,0.00,0.000000,,2014-01-27 11:43:00,
2014-01-27 04:53:00,26.0,8.0,-100.00,East,84,3.0,4.0,46,-99.99,,,0.00,0.000000,,2014-01-27 11:53:00,
2014-01-27 05:01:00,26.0,8.0,-100.00,East,84,3.0,4.0,46,-99.99,,,0.00,0.000000,,2014-01-27 12:01:00,
2014-01-27 05:42:00,26.0,9.0,-100.00,SE,128,4.0,5.0,47,0.00,,,0.00,0.000000,,2014-01-27 12:42:00,
2014-01-27 06:11:00,26.0,9.0,-100.00,SE,128,4.0,5.0,47,0.00,,,0.00,0.000000,,2014-01-27 13:11:00,
2014-01-27 06:42:00,26.0,9.0,-100.00,SE,128,5.0,6.0,49,0.00,,,0.00,0.000000,,2014-01-27 13:42:00,
2014-01-27 07:11:00,26.0,9.0,-100.00,SE,128,5.0,6.0,49,0.00,,,0.00,0.000000,,2014-01-27 14:11:00,
2014-01-27 07:42:00,25.0,9.0,-100.00,SSE,149,4.0,7.0,50,0.00,,,-99.99,0.000000,,2014-01-27 14:42:00,
2014-01-27 08:11:00,25.0,9.0,-100.00,SSE,149,4.0,7.0,50,0.00,,,-99.99,0.000000,,2014-01-27 15:11:00,
2014-01-27 08:12:00,28.0,12.0,-100.00,South,177,6.0,9.0,50,0.00,,,0.00,58.000000,,2014-01-27 15:12:00,
2014-01-27 08:44:00,28.0,12.0,-100.00,South,177,6.0,9.0,50,0.00,,,0.00,58.000000,,2014-01-27 15:44:00,
2014-01-27 08:53:00,28.0,12.0,-100.00,South,177,6.0,9.0,50,0.00,,,0.00,58.000000,,2014-01-27 15:53:00,
2014-01-27 09:03:00,28.0,12.0,-100.00,South,177,6.0,9.0,50,0.00,,,0.00,58.000000,,2014-01-27 16:03:00,
2014-01-27 09:12:00,33.0,12.0,-100.00,SSW,203,5.0,7.0,42,0.00,,,0.00,229.000000,,2014-01-27 16:12:00,
2014-01-27 09:43:00,33.0,12.0,-100.00,SSW,203,5.0,7.0,42,0.00,,,0.00,229.000000,,2014-01-27 16:43:00,
2014-01-27 09:52:00,33.0,12.0,-100.00,SSW,203,5.0,7.0,42,0.00,,,0.00,229.000000,,2014-01-27 16:52:00,
2014-01-27 10:02:00,33.0,12.0,-100.00,SSW,203,5.0,7.0,42,0.00,,,0.00,229.000000,,2014-01-27 17:02:00,
2014-01-27 10:12:00,37.0,14.0,-100.00,SSE,165,4.0,8.0,39,0.00,,,0.00,382.000000,,2014-01-27 17:12:00,
2014-01-27 10:43:00,37.0,14.0,-100.00,SSE,165,4.0,8.0,39,0.00,,,0.00,382.000000,,2014-01-27 17:43:00,
2014-01-27 10:52:00,37.0,14.0,-100.00,SSE,165,4.0,8.0,39,0.00,,,0.00,382.000000,,2014-01-27 17:52:00,
2014-01-27 11:02:00,37.0,14.0,-100.00,SSE,165,4.0,8.0,39,0.00,,,0.00,382.000000,,2014-01-27 18:02:00,
2014-01-27 11:43:00,40.0,15.0,-100.00,South,191,5.0,9.0,35,0.00,,,0.00,500.000000,,2014-01-27 18:43:00,
2014-01-27 11:52:00,40.0,15.0,-100.00,South,191,5.0,9.0,35,0.00,,,0.00,500.000000,,2014-01-27 18:52:00,
2014-01-27 12:01:00,40.0,15.0,-100.00,South,191,5.0,9.0,35,0.00,,,0.00,500.000000,,2014-01-27 19:01:00,
2014-01-27 12:11:00,40.0,15.0,-100.00,South,191,5.0,9.0,35,0.00,,,0.00,500.000000,,2014-01-27 19:11:00,
2014-01-27 12:42:00,42.0,14.0,-100.00,SW,221,5.0,10.0,31,0.00,,,0.00,567.000000,,2014-01-27 19:42:00,
2014-01-27 12:52:00,42.0,14.0,-100.00,SW,221,5.0,10.0,31,0.00,,,0.00,567.000000,,2014-01-27 19:52:00,
2014-01-27 13:02:00,42.0,14.0,-100.00,SW,221,5.0,10.0,31,0.00,,,0.00,567.000000,,2014-01-27 20:02:00,
2014-01-27 13:11:00,42.0,14.0,-100.00,SW,221,5.0,10.0,31,0.00,,,0.00,567.000000,,2014-01-27 20:11:00,
2014-01-27 13:12:00,42.0,14.0,-100.00,WSW,237,6.0,13.0,32,0.00,,,0.00,578.000000,,2014-01-27 20:12:00,
2014-01-27 13:42:00,42.0,14.0,-100.00,WSW,237,6.0,13.0,32,0.00,,,0.00,578.000000,,2014-01-27 20:42:00,
2014-01-27 13:52:00,42.0,14.0,-100.00,WSW,237,6.0,13.0,32,0.00,,,0.00,578.000000,,2014-01-27 20:52:00,
2014-01-27 14:02:00,42.0,14.0,-100.00,WSW,237,6.0,13.0,32,0.00,,,0.00,578.000000,,2014-01-27 21:02:00,
2014-01-27 14:12:00,44.0,12.0,-100.00,SW,223,7.0,15.0,27,0.00,,,0.00,528.000000,,2014-01-27 21:12:00,
2014-01-27 14:44:00,44.0,12.0,-100.00,SW,223,7.0,15.0,27,0.00,,,0.00,528.000000,,2014-01-27 21:44:00,
2014-01-27 14:53:00,44.0,12.0,-100.00,SW,223,7.0,15.0,27,0.00,,,0.00,528.000000,,2014-01-27 21:53:00,
2014-01-27 15:03:00,44.0,12.0,-100.00,SW,223,7.0,15.0,27,0.00,,,0.00,528.000000,,2014-01-27 22:03:00,
2014-01-27 15:43:00,42.0,10.0,-100.00,WSW,239,9.0,17.0,26,0.00,,,0.00,351.000000,,2014-01-27 22:43:00,
2014-01-27 15:53:00,42.0,10.0,-100.00,WSW,239,9.0,17.0,26,0.00,,,0.00,351.000000,,2014-01-27 22:53:00,
2014-01-27 16:02:00,42.0,10.0,-100.00,WSW,239,9.0,17.0,26,0.00,,,0.00,351.000000,,2014-01-27 23:02:00,
2014-01-27 16:11:00,42.0,10.0,-100.00,WSW,239,9.0,17.0,26,0.00,,,0.00,351.000000,,2014-01-27 23:11:00,
2014-01-27 16:42:00,41.0,10.0,-100.00,West,273,7.0,18.0,28,0.00,,,0.00,79.000000,,2014-01-27 23:42:00,
2014-01-27 16:53:00,41.0,10.0,-100.00,West,273,7.0,18.0,28,0.00,,,0.00,79.000000,,2014-01-27 23:53:00,
2014-01-27 17:02:00,41.0,10.0,-100.00,West,273,7.0,18.0,28,0.00,,,0.00,79.000000,,2014-01-28 00:02:00,
2014-01-27 17:11:00,41.0,10.0,-100.00,West,273,7.0,18.0,28,0.00,,,0.00,79.000000,,2014-01-28 00:11:00,
2014-01-27 17:12:00,38.0,13.0,-100.00,West,270,10.0,18.0,35,0.00,,,0.00,51.000000,,2014-01-28 00:12:00,
2014-01-27 17:42:00,38.0,13.0,-100.00,West,270,10.0,18.0,35,0.00,,,0.00,51.000000,,2014-01-28 00:42:00,
2014-01-27 17:52:00,38.0,13.0,-100.00,West,270,10.0,18.0,35,0.00,,,0.00,51.000000,,2014-01-28 00:52:00,
2014-01-27 18:01:00,38.0,13.0,-100.00,West,270,10.0,18.0,35,0.00,,,0.00,51.000000,,2014-01-28 01:01:00,
2014-01-27 18:42:00,35.0,13.0,-100.00,WSW,256,9.0,17.0,39,0.00,,,0.00,3.000000,,2014-01-28 01:42:00,
2014-01-27 18:52:00,35.0,13.0,-100.00,WSW,256,9.0,17.0,39,0.00,,,0.00,3.000000,,2014-01-28 01:52:00,
2014-01-27 19:01:00,35.0,13.0,-100.00,WSW,256,9.0,17.0,39,0.00,,,0.00,3.000000,,2014-01-28 02:01:00,
2014-01-27 19:11:00,35.0,13.0,-100.00,WSW,256,9.0,17.0,39,0.00,,,0.00,3.000000,,2014-01-28 02:11:00,
2014-01-27 19:42:00,31.0,11.0,-100.00,WSW,240,7.0,22.0,42,0.00,,,0.00,0.000000,,2014-01-28 02:42:00,
2014-01-27 19:52:00,31.0,11.0,-100.00,WSW,240,7.0,22.0,42,0.00,,,0.00,0.000000,,2014-01-28 02:52:00,
2014-01-27 20:02:00,31.0,11.0,-100.00,WSW,240,7.0,22.0,42,0.00,,,0.00,0.000000,,2014-01-28 03:02:00,
2014-01-27 20:11:00,31.0,11.0,-100.00,WSW,240,7.0,22.0,42,0.00,,,0.00,0.000000,,2014-01-28 03:11:00,
2014-01-27 20:12:00,29.0,10.0,-100.00,WSW,258,6.0,11.0,45,0.00,,,0.00,0.000000,,2014-01-28 03:12:00,
2014-01-27 20:43:00,29.0,10.0,-100.00,WSW,258,6.0,11.0,45,0.00,,,0.00,0.000000,,2014-01-28 03:43:00,
2014-01-27 20:53:00,29.0,10.0,-100.00,WSW,258,6.0,11.0,45,0.00,,,0.00,0.000000,,2014-01-28 03:53:00,
2014-01-27 21:03:00,29.0,10.0,-100.00,WSW,258,6.0,11.0,45,0.00,,,0.00,0.000000,,2014-01-28 04:03:00,
2014-01-27 21:12:00,28.0,10.0,-100.00,SW,219,6.0,10.0,47,0.00,,,0.00,0.000000,,2014-01-28 04:12:00,
2014-01-27 21:43:00,28.0,10.0,-100.00,SW,219,6.0,10.0,47,0.00,,,0.00,0.000000,,2014-01-28 04:43:00,
2014-01-27 21:53:00,28.0,10.0,-100.00,SW,219,6.0,10.0,47,0.00,,,0.00,0.000000,,2014-01-28 04:53:00,
2014-01-27 22:02:00,28.0,10.0,-100.00,SW,219,6.0,10.0,47,0.00,,,0.00,0.000000,,2014-01-28 05:02:00,
2014-01-27 22:12:00,29.0,8.0,-100.00,WNW,288,11.0,16.0,41,0.00,,,0.00,0.000000,,2014-01-28 05:12:00,
2014-01-27 22:42:00,29.0,8.0,-100.00,WNW,288,11.0,16.0,41,0.00,,,0.00,0.000000,,2014-01-28 05:42:00,
2014-01-27 22:53:00,29.0,8.0,-100.00,WNW,288,11.0,16.0,41,0.00,,,0.00,0.000000,,2014-01-28 05:53:00,
2014-01-27 23:02:00,29.0,8.0,-100.00,WNW,288,11.0,16.0,41,0.00,,,0.00,0.000000,,2014-01-28 06:02:00,
2014-01-27 23:42:00,29.0,8.0,-100.00,WNW,301,13.0,20.0,41,0.00,,,0.00,0.000000,,2014-01-28 06:42:00,
2014-01-27 23:52:00,29.0,8.0,-100.00,WNW,301,13.0,20.0,41,0.00,,,0.00,0.000000,,2014-01-28 06:52:00,